{"data":{"norad_id":67715,"intl_designator":"2026-025Y","name":"STARLINK-36718","alt_names":[],"object_type":"PAYLOAD","status":"ACTIVE","operator":null,"country":"US","launch_date":"2026-02-07","launch_site_code":"AFWTR","launch_vehicle":null,"mission":null,"orbit_class":"UNKNOWN","rcs_meters":null,"size_class":null,"mass_kg":null,"dimensions":null,"purposes":["comms"],"wikipedia_slug":null,"has_3d_model":false,"image_url":null,"decayed_at":null,"tle_current":{"epoch":"2026-05-25T01:08:03.740928Z","epoch_age_seconds":64255,"freshness":"FRESH","line1":"1 67715U 26025Y   26145.04726552  .00023245  00000+0  72018-3 0  9996","line2":"2 67715  97.2846 256.6536 0000527  67.9821 292.1477 15.33443051 17711","mean_motion":15.33443051,"eccentricity":5.27e-5,"inclination_deg":97.2846,"raan_deg":256.6536,"arg_perigee_deg":67.9821,"mean_anomaly_deg":292.1477,"bstar":0.00072018,"rev_number":1771,"period_min":93.906324011246,"perigee_km":465.18831108624,"apogee_km":465.90963558783,"semimajor_km":6843.685973337,"source":"CELESTRAK","updated_at":"2026-05-25T13:38:21.684053Z"}}}